Location: Unspecified
(48.2082°N, 0.0000°E)
Time: 19:00:31
(UTC+00:00)

S-56A Canister/Altair - Pass Details

Date: 24 June 2019
Orbit: 633 x 2499 km, 38.9° (Epoch: 19 August)

Event Time Altitude Azimuth Distance (km) Brightness Sun altitude
Rises 18:37:48 0° 265° (W) 4,423 12.6 11.7°
Reaches altitude 10° 18:41:32 10° 257° (WSW) 3,126 11.7 11.1°
Maximum altitude 18:47:46 31° 198° (SSW) 1,549 9.2 10.1°
Drops below altitude 10° 18:52:24 10° 136° (SE) 2,288 9.4 9.4°
Sets 18:54:44 0° 125° (SE) 3,081 10.0 9.1°
